Regional Weather Roundup
Issued by NWS Wakefield, VA

Home | Current Version | Previous Version | Text Only | Print | Product List | Glossary On
Versions: 1 2 3 4 5 6 7 8 9 10 11 12 13 14 15 16 17 18 19 20 21 22 23 24 25 26 27 28 29 30 31 32 33 34 35 36 37 38 39 40 41 42 43 44 45 46 47 48 49 50
783
ASUS41 KAKQ 251814
RWRAKQ

REGIONAL WEATHER ROUNDUP
NATIONAL WEATHER SERVICE WAKEFIELD VA
100 PM EST SAT FEB 25 2017

Note: "fair" indicates few or no clouds below 12,000 feet with no
significant weather and/or obstructions to visibility. * = Denotes
station may not report precipitation (e.g., rain,snow,etc.),
thunder or fog.

VAZ042-051-052>054-056-251900-
NORTHERN VIRGINIA

CITY           SKY/WX    TMP DP  RH WIND       PRES   REMARKS
WASH NATIONAL  PTSUNNY   70  57  63 S17       29.51F
DULLES         PTSUNNY   75  55  49 S22G35    29.48F
FORT BELVOIR   MOSUNNY   74  57  54 S10G17    29.50F
QUANTICO       CLOUDY    68  56  65 SW13G25   29.52F
FREDERICKSBRG* MOSUNNY   75  59  57 S13       29.52F
STAFFORD*      PTSUNNY   75  58  54 S9G24     29.56F
WARRENTON      PTSUNNY   78  53  41 S14G22    29.49F
CULPEPER*      PTSUNNY   75  57  52 SW13G24   29.50F
MANASSAS*        N/A     75  57  53 SW14G21   29.50F
LEESBURG*      CLOUDY    73  61  64 MISG      29.50F
WINCHESTER     CLOUDY    64  54  68 S3        29.50F
FRONT ROYAL*   CLOUDY    70  55  60 SE5       29.48F
LURAY*         NOT AVBL
$$

VAZ048-049-060>072-079>083-251900-
CENTRAL AND SOUTH CENTRAL VIRGINIA

CITY           SKY/WX    TMP DP  RH WIND       PRES   REMARKS
RICHMOND       PTSUNNY   75  57  53 S18G29    29.56F
CHESTERFIELD*  MOCLDY    75  48  38 S12G23    29.58F
PETERSBURG*    PTSUNNY   76  55  48 S8G20     29.59F
HANOVER        PTSUNNY   77  55  46 S18G26    29.56F
TAPPAHANNOCK*  PTSUNNY   76  52  43 S13G22    29.57F
QUINTON*       NOT AVBL
CHARLOTTSVILLE PTSUNNY   71  55  56 S14       29.48F
GORDONSVILLE*  NOT AVBL
ORANGE*        PTSUNNY   73  55  53 S12G26    29.52F
LOUISA*        PTSUNNY   75  61  60 SW8G20    29.51F
BUMPASS*       MOCLDY    74  58  56 S13G22    29.54F
FARMVILLE*     PTSUNNY   77  57  50 S18G25    29.53F
CREWE*         MOCLDY    74  58  56 S13G21    29.57F
FORT PICKETT*  CLOUDY    75  49  40 S18G32    29.58F
CHASE CITY*    NOT AVBL
CLARKSVILLE*   FAIR      73  55  53 S16G28    29.59F
SOUTH HILL*    CLOUDY    74  58  57 S17       29.65F
LAWRENCEVILLE* MOCLDY    75  55  50 SW17G24   29.60F
EMPORIA*       SUNNY     75  55  50 S13G20    29.61F
$$

VAZ088>098-251900-
SOUTHEAST VIRGINIA

CITY           SKY/WX    TMP DP  RH WIND       PRES   REMARKS
NORFOLK        SUNNY     79  56  45 S16G24    29.62F
VIRGINIA BEACH MOSUNNY   76  57  51 SW15      29.62F
NORFOLK NAVAL  NOT AVBL
WEST POINT*    SUNNY     76  55  46 S14G23    29.60F
SALUDA*        FAIR      76  60  58 S12G21    29.59F
NEWPORT NEWS   SUNNY     76  57  51 S14       29.61F
LANGLEY AFB    SUNNY     77  57  50 SW16G23   29.61F
FORT EUSTIS    MOSUNNY   76  58  52 S10       29.58F
WILLIAMSBURG*  MOSUNNY   79  59  50 S10G18    29.61F
HR EXEC AP*    NOT AVBL
FRANKLIN*      MOSUNNY   77  57  48 S15       29.62F
US460-WAKEFLD  MOSUNNY   76  58  53 S10G22    29.60F
$$

VAZ020-022-025-037-045-251900-
WEST CENTRAL AND SOUTHWEST VIRGINIA

CITY           SKY/WX    TMP DP  RH WIND       PRES   REMARKS
STAUNTON*      CLOUDY    64  50  58 W22G29    29.56F
WAYNESBORO*    CLOUDY    64  50  60 SW13G24   29.54F
HOT SPRINGS VA LGT RAIN  41  41 100 W22G32    29.63F
LYNCHBURG      PTSUNNY   70  54  56 S22G30    29.57F
DANVILLE       PTSUNNY   75  54  47 W18G28    29.57F
SOUTH BOSTON*  NOT AVBL
MARTINSVILLE   CLOUDY    67  54  64 W7        29.64F
ROANOKE        CLOUDY    58  35  42 W21G30    29.65F
BLACKSBURG     CLOUDY    51  42  72 W8        29.71F
DUBLIN*        CLOUDY    54  40  60 W14       29.70F
MARION*        CLOUDY    51  38  61 W18G29    29.75S
HILLSVILLE*    CLOUDY    51  39  63 NW6       29.69F
RICHLANDS*     MOCLDY    49  37  62 NW10G22   29.73F
WISE*          PTSUNNY   46  32  57 W14G21    29.78S
ABINGDON*      CLOUDY    52  39  60 W12G23    29.76S
$$

MDZ021>025-VAZ099-100-251900-
SOUTHERN MARYLAND AND THE DELMARVA PENINSULA

CITY           SKY/WX    TMP DP  RH WIND       PRES   REMARKS
PATUXENT RIVER PTSUNNY   67  57  70 SE12      29.56F
BAY BRIDGE APT MOSUNNY   70  57  64 S16       29.54F
LEONARDTOWN    CLOUDY    73  55  53 SW14G20   29.57F
DOVER          PTSUNNY   73  64  73 S13       29.56F
GEORGETOWN     MOSUNNY   76  57  51 S13G25    29.60F
EASTON         SUNNY     73  57  56 S14G23    29.61F
CAMBRIDGE      SUNNY     68  59  73 S18G25    29.58F
SALISBURY      MOSUNNY   75  59  57 S13       29.59F
OCEAN CITY     CLOUDY    56  52  86 S8        29.64F
WALLOPS ISLAND SUNNY     63  57  81 S17       29.63F
ACCOMACK*      SUNNY     70  60  70 S16G22    29.62F
$$

NCZ012>017-030>032-251900-
NORTH CENTRAL AND EASTERN NORTH CAROLINA

CITY           SKY/WX    TMP DP  RH WIND       PRES   REMARKS
ROANOKE RAPIDS FAIR      77  57  50 S15       29.62F
RALEIGH        PTSUNNY   79  56  45 SW23G37   29.62F
ELIZABETH CITY SUNNY     76  57  51 S12       29.66F
AHOSKIE*         N/A     76  57  52 S13G18    29.64F
EDENTON*       SUNNY     78  58  49 SW10      29.67F
CURRITUCK*     SUNNY     75  57  53 S10       29.67F
KILL DEVIL HLS NOT AVBL
MANTEO         SUNNY     71  60  70 S14G20    29.69F
CAPE HATTERAS  SUNNY     72  61  68 SW9       29.73F HAZE
TARBORO*       NOT AVBL
GOLDSBORO      SUNNY     79  56  45 S14G24    29.64F
WASHINGTON     SUNNY     77  57  50 SW15G22   29.68F
GREENVILLE     SUNNY     79  55  44 SW17G24   29.69F
NEW BERN       MOSUNNY   79  58  48 SW14G21   29.70F
WILMINGTON     SUNNY     77  60  55 S15G25    29.71F
$$

VAZ048-251900-
ELSEWHERE

CITY           SKY/WX    TMP DP  RH WIND       PRES   REMARKS
HARRISBURG PA  CLOUDY    67  59  75 CALM      29.48F
BALTIMORE      PTSUNNY   74  57  55 SE10G24   29.51F
ANNAPOLIS      MOSUNNY   68  58  70 SE14      29.55F
ANDREWS AFB    PTSUNNY   74  57  56 S18G25    29.51F
PHILADELPHIA   PTSUNNY   71  56  58 S10G20    29.58F
HENDERSON NC   MOSUNNY   73  54  51 SW15G28   29.60F
GREENSBORO     PTSUNNY   74  56  53 SW21G26   29.60F
ROCKY MOUNT    SUNNY     78  57  48 S15G21    29.64F
$$

VAZ100-251900-
MARINE

STATION/POSITION TIME  TEMP    WIND        PRES    WAVE   SWELL
                       AIR SEA DIR/SP/G            HT/PER HT/PER
                 (UTC) (F)     (DEG/KT/KT) (MB)    (FT/S) (FT/S)
CAPE MAY NJ      1748   57 45  150/ 14/ 21 1002.5F
LEWES DE         1748   64 45  150/ 10/ 15 1002.4F
OCEAN-CITY-INLET 1748   48 45  210/  5/  6 1004.2F
WACHAPREAGUE VA  1748   63 60  180/  7/ 12 1003.7F
THOMAS POINT MD  1800   59 44  150/ 18/ 19   N/A
GOOSES REEF MD   1750   52     150/ 17/ 19 1001.8F
COVE POINT MD    1748   51     190/ 17/ 19 1002.1F
SOLOMONS ISLAND  1748      46  110/ 10/ 17   N/A
BISHOPS HEAD MD  1748   57 52  160/ 14/ 16 1002.5F
PINEY POINT MD   1748          200/ 13/ 16   N/A
POTOMAC MD       1750   52     160/ 12/ 14 1000.9F
CAMBRIDGE MD     1748   69 45  170/ 11/ 15 1001.1F
LEWISETTA VA     1748   71 52  210/ 12/ 15 1001.0F
RAPPAHANNOCK LGT 1748          180/ 17/ 18 1003.4F
YORK RVR RNG VA  1748   62     170/ 10/ 12 1002.1F
YORKTOWN VA      1748   73 48  210/ 13/ 19 1002.0F
JAMESTOWN VA     1750   71     200/ 12/ 16   N/A
DOMINION TERM VA 1748   67     220/ 14/ 16 1002.8F
KIPTOPEKE VA     1748      50  170/ 13/ 15   N/A
CHES BAY BRIDGE  1748   70 50  190/ 11/ 14 1003.0F
CAPE HENRY VA    1748   67     140/ 15/ 18   N/A
WILLOUBY STN VA  1748   73     190/ 18/ 20 1003.9F
S CRANEY ISL VA  1748   73     200/ 11/ 17 1003.1F
CAPE HENRY BUOY  1742      51                N/A     4/11   2/11
OFFSHORE WE BUOY 1751      53                N/A     5/11   3/11
64NM E OF VA BCH 1750   59 55  170/  6/  8 1005.4F   7/11   7/11
DUCK PIER NC     1748   59 50  140/ 11/ 12 1004.8F
44100 DUCK FRF   1735      55                N/A     5/11   3/11
44056 DUCK FRF   1730      53                N/A     4/12   3/12
OREGON INLET NC  1748          170/ 10/ 13   N/A
HATTERAS NC      1748   70 63  180/  3/  8 1006.3F
DIAMOND SHLS NC  1750   70 76  230/ 10/ 14 1006.7F   6/10   7/10
CAPE LOOKOUT NC  1700   69     220/  8/ 13 1007.6F
$$




USA.gov is the U.S. government's official web portal to all federal, state and local government web resources and services.